This is the latest recevied weather packets stored in our database for station/object EA2MKR. If no packets are shown the sender has not sent any weather packets the latest 10 day(s).
| Time | Temp. | Humidity | Pressure | Rain* | Wind** | Luminosity | Snow |
|---|---|---|---|---|---|---|---|
| 1777823342 | 15.56° C | 82% | 948.6 hPa | 0 mm | - | - | - |
| 1777823043 | 15.56° C | 80% | 948.7 hPa | 0 mm | - | - | - |
| 1777822841 | 16.11° C | 80% | 948.7 hPa | 0 mm | - | - | - |
| 1777822442 | 16.11° C | 80% | 948.8 hPa | 0 mm | - | - | - |
| 1777822143 | 16.11° C | 81% | 948.7 hPa | 0 mm | - | - | - |
| 1777821843 | 16.11° C | 80% | 948.8 hPa | 0 mm | - | - | - |
| 1777821534 | 16.11° C | 83% | 948.8 hPa | 0 mm | - | - | - |
| 1777821218 | 16.11° C | 84% | 948.8 hPa | 0 mm | - | - | - |
| 1777820918 | 16.11° C | 83% | 948.9 hPa | 0 mm | - | - | - |
| 1777820742 | 16.11° C | 84% | 948.9 hPa | 0 mm | - | - | - |
| 1777820298 | 16.11° C | 84% | 949 hPa | 0 mm | - | - | - |
| 1777819999 | 16.67° C | 83% | 949.2 hPa | 0 mm | - | - | - |
| 1777819697 | 16.67° C | 85% | 949.1 hPa | 0 mm | - | - | - |
| 1777819521 | 16.67° C | 85% | 949.3 hPa | 0.25 mm | - | - | - |
| 1777819221 | 16.11° C | 84% | 949.3 hPa | 0.25 mm | - | - | - |
| 1777818796 | 16.11° C | 89% | 949.5 hPa | 0.51 mm | - | - | - |
| 1777818496 | 16.11° C | 87% | 949.5 hPa | 0.51 mm | - | - | - |
| 1777818196 | 16.11° C | 89% | 949.5 hPa | 0.76 mm | - | - | - |
| 1777817896 | 16.11° C | 90% | 949.5 hPa | 1.02 mm | - | - | - |
| 1777817596 | 15.56° C | 91% | 949.6 hPa | 1.27 mm | - | - | - |
| 1777817420 | 15.56° C | 91% | 949.7 hPa | 1.27 mm | - | - | - |
| 1777816997 | 15° C | 91% | 949.7 hPa | 1.27 mm | - | - | - |
| 1777816697 | 15° C | 91% | 949.7 hPa | 1.52 mm | - | - | - |
| 1777816518 | 15° C | 91% | 949.8 hPa | 1.52 mm | - | - | - |
| 1777816092 | 15° C | 92% | 949.9 hPa | 1.52 mm | - | - | - |
* Rain latest hour (hover to see other rain measurements)
** Current wind speed in m/s (hover to see current wind gust speed)